ROMMA est une association bénévole à but non lucratif. Votre soutien est indispensable : ADHERER à ROMMA ou FAIRE un DON

Voiron - (38, Isère)

Voironnais (300 m)   Longitude: 05° 35' E   Latitude: 45° 23' N Station partenaire n°109
 

Détail journalier du     <<     >>

Température Precipitation Humidité Pression Vent Dir Rafale Dir. rafale Ensol.
Heure (°C) (mm) (%) (hPa) (km/h) (km/h) (min)
01:00 23.306210155SE15SSE0
02:00 22.406410152SSE8S0
03:00 20.407210141SSE5SSE0
04:00 19.107610141SSE3SSE0
05:00 17.907710131SSE6NNO0
06:00 17.108110131N5NNO0
07:00 17.708010142SE6SE0
08:00 18.307610142SE11SSO60
09:00 18.607410134S15SSE60
10:00 19.807110136SSO13SSO60
11:00 21.306910136S15S60
12:00 22.706310126SSO16SSE60
13:00 24.705710117SSO19S60
14:00 26.4045101110SSO27SO60
15:00 27.1044101013SSO32O60
16:00 28.3039101012SSO29O60
17:00 28.3037101011SO27S60
18:00 27.9036100910SO21O60
19:00 26.603910098SSO23S30
20:00 25.903610106SSO15NO60
21:00 24.903910105SSO11S30
22:00 23.304110105SSO16S0
23:00 21.804710102OSO8SSO0
minuit 19.7057101105SSO0

Graphique du 04-06-2019

 

Serveur OMMA